Location: Gorlice
(49.6633°N, 21.1693°E)
Time: 14:47:41
(UTC+01:00)

ISS - Pass Details

Date: 24 January 2019
Orbit: 403 x 411 km, 51.6° (Epoch: 16 February)

Event Time Altitude Azimuth Distance (km) Brightness Sun altitude
Rises 19:20:17 0° 250° (WSW) 2,333 1.0 -29.4°
Reaches altitude 10° 19:22:22 10° 250° (WSW) 1,475 -0.2 -29.7°
Enters shadow 19:22:45 13° 250° (WSW) 1,317 -0.5 -29.8°
